Regional Weather Roundup
Issued by NWS Charleston, WV

Home | Current Version | Previous Version | Graphics & Text | Print | Product List | Glossary On
Versions: 1 2 3 4 5 6 7 8 9 10 11 12 13 14 15 16 17 18 19 20 21 22 23 24 25 26 27
000
ASUS41 KRLX 171710
RWRRLX
West Virginia Regional Weather Roundup
National Weather Service Charleston WV
100 PM EDT THU AUG 17 2017

Note: "fair" indicates few or no clouds below 12,000 feet with no
significant weather and/or obstructions to visibility.

WVZ003-171800-
Northern Panhandle of West Virginia

CITY           SKY/WX    TMP DP  RH WIND       PRES   REMARKS
WHEELING       CLOUDY    85  70  60 S14       29.97F
$$

WVZ009-171800-
Northwest West Virginia

CITY           SKY/WX    TMP DP  RH WIND       PRES   REMARKS
PARKERSBURG    MOSUNNY   87  75  67 S9        29.99F HX  96
$$

WVZ006-171800-
Western West Virginia

CITY           SKY/WX    TMP DP  RH WIND       PRES   REMARKS
HUNTINGTON     CLOUDY    86  76  71 S10       29.97F HX  96
$$

WVZ015-171800-
West Central West Virginia

CITY           SKY/WX    TMP DP  RH WIND       PRES   REMARKS
CHARLESTON     MOSUNNY   87  72  60 SW12G18   29.99F
$$

WVZ022-031-171800-
North Central West Virginia

CITY           SKY/WX    TMP DP  RH WIND       PRES   REMARKS
CLARKSBURG     PTSUNNY   85  68  56 S12       30.01F
MORGANTOWN     MOSUNNY   84  69  60 S7        30.01F
$$

WVZ025-035-042-045-171800-
Southern West Virginia

CITY           SKY/WX    TMP DP  RH WIND       PRES   REMARKS
BECKLEY        PTSUNNY   83  68  60 W7        30.11F
LOGAN            N/A     82  73  74 VRB5G12   30.05F
BLUEFIELD      PTSUNNY   80  66  62 W7        30.14F
LEWISBURG      MOSUNNY   80  68  66 SW6       30.10F
$$

WVZ047-171800-
Northern Mountains of West Virginia

CITY           SKY/WX    TMP DP  RH WIND       PRES   REMARKS
ELKINS         PTSUNNY   82  68  62 W6        30.07F
$$

WVZ052-171800-
Eastern Panhandle of West Virginia

CITY           SKY/WX    TMP DP  RH WIND       PRES   REMARKS
MARTINSBURG    MOSUNNY   83  71  67 SE5       29.99F
PETERSBURG     SUNNY     87  74  64 CALM      30.00F HX  96
$$




USA.gov is the U.S. government's official web portal to all federal, state and local government web resources and services.